Accueil
METAR-TAF:

METAR-TAF

Aéroports :

Flessingue, Pays-Bas

latitude: 51-27N, longitude: 3-36E, altitude: 10 m

Observation

Le bulletin a été fait il y a 29 minutes, à 06:55 UTC
Vent 19 kt de nord/nord-ouest, variant entre nord-ouest et nord/nord-est
Température 7°C
Humidité 76%
Pression 1039 hPa
Visibilité 10 km ou plus

METAR: EHFS 050655Z AUTO 34019KT 320V030 9999 SCT023/// SCT030/// 07/03 Q1039

Heure: 08:24 (07:24 UTC)


TAF: absent

Observations et prévisions météorologiques de plus de 4000 aéroports (messages METAR et TAF).

Les stations disponibles sont représentées par des disques jaunes et rouges sur la carte.

Passer la souris dessus pour voir le nom de la station.

Cliquer dessus pour voir les observations et prévisions météorologiques.

Pour changer de carte: cliquez sur les boutons verts avec une croix noire pour zoomer, sur le bouton vert avec un tiret pour effectuer un zoom arrière, ou sur les flèches vertes pour les cartes adjacentes.


METAR-TAF: